ONEWEB-0098, 45442

Orbit data source: Space-Track

ONEWEB-0098, 45442 is a payload satellite owned by One Web (UK) in LEO that was launched on Sat, 21 Mar 2020 UTC via a SOYUZ-2-1B launch vehicle from the Tyuratam Missile And Space Complex (TTMTR). Payloads include a variety of satellites, spacecraft, and rockets equipped with specific instruments for various scientific and technological missions. These include communications satellites like Starlink; space stations such as the ISS; scientific satellites like the Hubble; Earth observation satellites from companies like Planet Labs, Umbra, and HawkEye 360; GPS; miniature CubeSats for education and research; and military/defense satellites.

Loading next visibility...
ONEWEB-0098 details
Identifier
45442, 2020-020U
Orbit
LEO
Last TLE update14 hours ago
Origin
Flag of UKOne Web (UK)
ManufacturerOne Web
MissionOperational Commercial Communications
Bus & MotorARROW, Unknown motor
Mass148 kg wet, ~140 kg dry
Launch date (UTC)
2020-03-21 (5 years ago)
Launch vehicle
SOYUZ-2-1B
Launch site
Tyuratam Missile And Space Complex (TTMTR)
Object type
Payload
Rocket body
Debris
Shape & HBRTrap Box + 2 Pan, 5 m
Radar Cross Section2.957 m², Large (>1 m²)

Expand to show TLE details & history

TLE from 14 hours ago
0 ONEWEB-0098
1 45442U 20020U   24336.73268925  .00000500  00000-0  13750-2 0  9996
2 45442  87.8886 133.1310 0001200  94.1247 266.0018 13.11417395228929
Epoch: 2024-12-01T17:35Z
Definitive object data (Epoch: 2024-12-01T17:35:04.351Z)
Latitude-0.00002°
Longitude158.2962°
Altitude1,220.634 km
Speed7.244 km/s
True Right ascension08h 52m 31s
True Declination0° 00' 00"
Sunlit
Object was in daylight at TLE epoch
Visualization TLE readout
Latitude-33.42777°
Longitude-20.43158°
Altitude1,230.724 km
Speed7.238 km/s
Apparent Right ascension19h 22m 02s
Apparent Declination-39° 33' 23"
Sunlit
Object is in daylight
Visualization observer readout
Local Sidereal Time05:15:14
Azimuth260.537° W
Elevation-65.75°
Doppler factor1
Orbital elements
Apogee altitude1,215.71 km
Perigee altitude1,213.888 km
Semi-major axis7,592.936 km
Eccentricity0.00012
Inclination87.8886°
RAAN133.131°
Arg. of periapsis94.1247°
True anomaly265.98808°
Mean anomaly266.0018°
Eccentric anomaly265.99494°
Mean motion3.28041 °/min
BSTAR0.001375
Orbital period109.74 mins
Loading maneuver chart data...
Loading historical data...
Loading historical data...
Loading historical data...
Loading historical data...
Loading historical data...
Loading historical data...
Loading historical data...

ONEWEB-0098 Visibility forecast

Observer location: undefined°, undefined

Span
Click to sort rows by Start time (UTC) header in descending order
Start Az.
Max El. time (UTC)
Max El. Az.
Max El.
End time (UTC)
End Az.
12 mins2024-12-02 10:10:10.133Z142.676° SSE2024-12-02 10:16:10.133Z83.124° E31.228°2024-12-02 10:22:10.133Z19.475° NNE
11 mins2024-12-02 12:01:10.133Z219.23° SW2024-12-02 12:06:10.133Z279.212° WNW32.154°2024-12-02 12:12:10.133Z342.714° N
11 mins2024-12-02 21:40:10.133Z25.376° NE2024-12-02 21:45:10.133Z75.711° E26.418°2024-12-02 21:51:10.133Z135.43° SSE
12 mins2024-12-02 23:30:10.133Z343.265° N2024-12-02 23:35:10.133Z284.963° WNW36.813°2024-12-02 23:42:10.133Z206.134° SW
|